Theta_e
348 346 343 339 337 336 333 331 330 330 329 329 330 332 336 338 339 340 340 340 339 338 335 331 329 326 322 316 314 314 314 315 318 319 319 318 317 314 312 313 312 311 310 309 309 308 309 309 309 310 310 311 314 319 325 329 331 332 333 333 333 333 333 332 332 333 334 334 335 336 336 337 337 337 336 337 337 337 337 337 337 337 337 336 336
348 345 342 339 337 336 332 331 330 329 328 328 329 332 337 338 339 340 340 340 339 338 336 332 331 330 326 319 314 314 314 315 316 318 319 318 317 314 313 313 313 312 311 309 309 309 309 309 309 309 310 310 312 315 319 324 329 332 333 333 333 333 332 331 332 333 333 334 335 336 337 337 337 336 336 336 337 337 336 336 337 337 336 336 336
347 344 340 338 337 335 331 330 329 327 326 326 329 333 337 338 339 340 340 340 339 337 336 333 333 331 328 322 315 314 314 314 315 317 318 318 315 314 315 314 314 314 311 309 310 310 309 309 309 309 309 310 311 313 315 320 327 331 331 332 333 332 331 330 331 332 332 333 335 337 337 337 337 337 336 336 336 337 336 336 336 336 336 336 336
346 343 339 337 336 333 330 328 327 324 323 324 328 334 337 338 339 340 340 340 339 337 336 334 333 333 331 326 318 314 314 314 314 315 318 318 316 316 314 313 318 315 309 310 311 311 310 309 309 308 308 309 310 311 314 318 323 326 329 331 332 331 330 330 329 329 330 331 334 336 337 337 337 337 337 336 336 337 336 336 336 336 336 336 335
345 343 339 337 334 330 328 326 324 321 321 324 329 335 337 338 339 340 340 340 339 337 336 334 334 333 332 329 322 315 314 314 314 315 318 321 321 318 310 316 325 318 310 311 311 312 311 310 309 308 308 308 309 311 312 315 319 322 326 329 330 330 329 328 328 328 329 330 331 333 335 337 337 337 337 336 335 334 334 334 334 334 333 333 333
344 344 339 334 331 328 326 324 321 320 320 324 331 336 337 338 339 340 340 340 339 337 336 335 334 334 333 331 326 319 316 314 314 315 319 326 325 316 309 323 332 321 314 314 311 313 312 311 309 308 308 308 309 309 311 313 316 318 322 325 328 328 327 327 328 328 329 330 330 331 332 335 336 336 336 335 334 332 331 330 330 329 329 329 329
344 343 338 333 330 326 323 321 320 319 320 325 332 335 337 337 338 339 340 340 339 337 336 335 334 334 333 332 329 323 319 314 314 315 320 328 324 315 317 329 332 323 319 318 315 316 314 315 314 313 310 308 308 309 310 311 313 315 317 321 325 326 326 328 330 330 330 330 331 330 331 333 335 335 335 335 334 333 331 330 328 325 322 324 326
343 342 339 334 329 324 321 320 320 320 322 326 331 334 336 337 338 339 339 340 338 337 336 335 335 334 333 332 329 324 321 317 316 317 319 324 322 322 327 330 328 324 324 322 320 318 317 318 317 316 312 308 308 308 309 310 311 312 313 318 323 324 324 327 329 330 331 330 330 330 331 332 332 333 333 333 332 331 329 328 326 322 318 319 322
342 341 340 334 327 324 321 321 320 321 324 327 330 333 335 336 337 338 339 339 337 337 335 335 335 334 332 330 327 324 322 319 319 319 318 320 323 329 332 331 331 330 329 328 327 322 320 321 319 317 313 310 308 308 308 309 310 311 312 314 318 321 322 326 329 331 332 332 331 331 331 331 330 328 328 328 326 324 325 325 321 318 316 315 318
342 342 342 332 324 324 321 321 319 320 323 325 329 333 334 336 337 338 339 338 336 336 336 335 335 332 330 327 325 322 320 319 318 318 320 323 327 331 334 334 335 334 333 333 332 328 324 322 320 318 315 312 310 308 308 308 309 310 310 313 319 325 327 329 330 331 331 331 331 330 329 327 324 319 318 318 316 316 319 320 316 313 313 314 317
342 342 342 330 323 325 322 320 319 318 319 322 326 330 333 335 336 337 338 337 336 336 336 335 333 330 327 326 325 325 323 318 320 323 323 325 329 332 334 336 335 334 334 334 333 329 326 323 320 319 317 315 312 310 308 308 308 309 312 316 324 330 331 332 331 331 331 331 329 328 326 319 315 312 312 312 311 313 313 313 312 311 311 312 314
343 342 339 328 325 327 322 321 321 320 318 318 321 326 330 334 336 337 337 337 337 336 336 334 331 327 327 329 330 333 330 322 324 331 330 328 329 331 334 335 333 333 333 332 331 329 326 323 320 319 317 316 314 312 310 309 308 310 313 317 326 332 333 333 333 333 333 332 330 329 324 316 312 311 311 311 310 310 310 310 310 310 310 310 310
343 342 336 326 327 326 323 324 324 322 319 318 318 320 324 329 333 335 336 337 337 336 335 332 330 330 332 335 337 338 333 324 324 332 335 331 328 331 333 333 332 333 334 333 331 329 327 324 321 320 319 316 315 314 312 310 309 309 313 318 327 332 332 333 333 333 332 331 331 328 319 313 311 311 310 310 310 309 309 309 309 309 309 309 309
342 342 333 325 329 326 325 327 326 324 321 320 317 316 319 323 327 330 333 335 337 335 332 331 332 334 336 338 338 335 330 324 323 327 333 331 328 332 333 331 333 334 334 333 331 328 327 326 324 323 321 319 317 316 314 312 310 310 313 317 323 328 330 332 332 333 332 331 329 321 312 310 311 310 310 310 310 310 309 309 310 309 309 309 309
343 341 330 326 329 326 327 328 327 327 325 324 322 318 316 318 322 326 328 333 335 332 332 332 333 336 336 335 335 332 328 328 326 325 329 331 329 332 334 334 334 334 333 331 328 327 327 327 326 326 324 322 320 318 316 314 311 311 312 317 323 328 330 331 332 333 332 331 326 316 310 310 310 310 310 310 310 309 309 309 310 309 309 309 309
342 340 333 330 329 327 327 327 328 328 328 328 327 324 319 317 319 323 326 330 332 331 332 333 333 335 335 335 335 332 331 333 332 328 327 328 330 331 332 333 332 331 330 328 327 328 328 328 328 328 327 324 322 321 318 315 313 312 313 319 325 328 331 332 332 332 330 330 325 314 310 310 310 310 309 309 309 309 309 309 309 309 309 309 309
342 340 338 333 329 329 326 327 329 328 329 329 329 328 323 319 319 324 327 329 331 331 332 333 333 334 335 336 334 332 331 333 334 331 326 325 329 331 331 331 329 327 327 327 327 328 328 328 328 329 329 327 325 323 319 316 315 314 314 317 322 327 331 333 333 333 332 333 327 314 309 310 309 309 309 309 309 309 309 309 309 309 309 309 309
341 340 341 336 333 331 327 330 330 329 330 330 330 329 325 322 322 327 330 330 330 329 331 331 332 334 334 334 333 331 330 331 333 332 328 325 327 329 329 328 326 325 324 324 327 328 328 328 328 329 329 328 327 324 320 317 316 315 315 316 319 324 328 330 332 333 333 332 324 311 309 309 308 309 308 309 309 309 309 309 309 309 309 308 308
341 341 341 339 337 333 330 331 331 332 332 331 332 330 326 323 322 327 330 332 330 330 331 328 330 333 333 332 332 331 330 331 331 331 331 330 329 328 326 324 323 324 322 322 327 328 327 327 327 328 329 328 327 325 322 318 316 315 316 319 323 327 330 331 332 332 332 328 316 307 308 307 307 308 308 308 308 308 308 308 308 308 308 308 308
341 341 341 339 338 335 333 330 332 335 333 333 334 332 327 322 320 321 324 328 329 330 330 328 330 333 333 332 330 329 330 332 331 331 332 333 332 330 327 323 320 322 322 322 326 328 327 327 326 328 328 329 328 325 323 319 318 316 319 324 327 331 333 332 331 331 329 320 309 307 307 307 307 307 307 307 307 308 308 308 308 308 308 308 308
341 342 341 339 338 337 334 330 333 336 334 334 335 335 330 323 321 319 320 323 324 326 327 328 331 331 332 331 327 328 331 332 332 331 331 332 331 330 329 326 321 319 321 323 324 327 327 326 326 327 327 328 328 326 324 321 320 319 320 324 326 331 333 331 330 330 327 317 307 308 307 307 307 306 306 306 306 307 306 307 307 307 307 307 307
342 342 341 341 339 338 335 330 333 338 336 335 336 336 332 325 324 324 325 326 325 325 325 327 330 330 330 329 328 329 333 332 332 331 330 329 329 330 331 329 325 318 319 323 324 325 326 326 327 328 328 328 328 327 325 323 322 321 322 325 328 332 332 331 331 331 328 320 309 308 309 308 309 309 308 306 306 306 306 306 306 306 306 306 306
343 343 342 341 340 340 338 333 335 338 337 336 335 336 333 328 326 326 329 330 329 327 325 326 328 328 327 329 330 331 332 331 331 332 329 329 330 332 331 328 324 319 317 318 323 324 324 327 329 329 329 328 329 328 327 325 324 322 324 329 331 332 332 331 331 330 329 323 310 308 311 311 312 314 313 309 307 306 306 306 305 306 305 305 305
343 343 343 341 341 341 340 338 338 339 338 338 336 335 333 330 327 326 328 331 331 329 326 326 328 328 327 329 332 332 332 332 332 332 330 330 332 332 330 326 321 318 316 316 320 324 325 328 330 330 329 329 332 331 330 328 326 325 329 333 332 332 332 331 331 330 330 326 316 315 318 317 316 318 318 314 309 307 306 306 306 306 305 305 305
344 344 343 342 342 341 341 341 340 338 339 339 338 337 334 334 332 330 330 332 332 332 331 329 330 331 330 329 331 333 333 333 332 332 331 331 332 331 329 327 324 320 319 320 319 322 326 328 330 331 328 329 332 332 332 329 328 330 333 333 332 332 332 332 332 331 330 327 322 323 326 326 323 323 322 316 312 309 307 307 306 306 305 305 305
344 343 343 343 343 342 341 341 339 337 338 338 339 338 336 337 336 334 334 335 335 337 335 332 331 332 332 329 331 333 332 332 331 330 331 332 332 331 329 327 325 321 323 325 320 317 323 327 330 331 329 329 331 332 330 326 329 333 333 332 332 333 332 332 332 331 330 326 324 326 328 329 328 327 325 318 313 311 308 307 307 306 305 305 305
343 342 343 343 343 341 340 341 339 338 338 338 339 339 337 338 337 335 335 336 337 337 335 333 333 333 333 331 331 332 332 332 331 330 331 332 333 332 331 326 323 321 323 327 323 316 323 329 330 331 331 331 332 332 329 328 331 332 332 332 332 333 332 332 332 332 330 326 325 327 329 330 330 329 324 318 314 311 309 307 306 306 306 305 305
342 342 343 343 342 341 340 340 339 338 339 338 338 339 338 337 337 336 334 335 335 334 334 333 333 335 334 332 331 332 332 332 331 331 332 333 333 334 332 329 327 325 321 324 325 321 325 330 331 330 330 331 332 332 331 331 332 331 331 332 332 333 333 333 333 332 330 328 326 326 329 330 330 328 323 320 316 310 309 307 307 306 306 306 307
342 343 344 344 342 341 340 340 339 339 340 338 337 338 338 337 337 337 335 336 335 333 333 333 333 335 335 333 332 332 332 332 331 331 332 333 333 333 331 329 329 326 322 326 329 327 327 331 332 329 327 329 332 332 332 332 331 331 331 331 332 333 333 333 333 332 330 330 327 324 327 329 329 326 321 319 314 309 308 307 307 307 308 310 312
343 343 344 344 342 340 341 341 339 339 338 338 337 337 338 338 337 335 335 335 335 334 334 333 333 334 334 333 332 332 332 332 331 331 333 333 332 329 326 325 325 323 322 328 331 329 329 331 330 327 327 330 331 331 332 332 331 330 330 331 332 332 333 332 333 332 329 330 328 324 324 326 326 322 318 315 310 309 309 310 312 312 313 316 318
344 343 343 342 340 339 341 341 339 338 338 338 336 335 338 338 336 332 333 335 333 332 333 334 333 332 332 332 331 332 333 332 332 333 332 331 328 325 323 322 322 320 321 325 326 325 328 329 327 327 330 331 331 331 332 331 330 330 330 331 331 332 333 332 332 331 328 329 330 327 325 322 320 318 316 314 312 314 316 317 318 319 320 322 323
344 343 342 341 340 339 340 339 339 339 338 338 335 336 338 337 335 332 333 335 333 333 333 332 331 331 331 331 331 331 331 331 333 332 328 326 324 322 322 322 322 323 323 323 324 326 329 329 329 330 331 331 331 331 331 331 330 330 330 331 331 331 332 332 332 331 329 330 330 330 326 320 317 318 319 318 318 321 323 323 323 324 326 327 327
344 343 342 341 340 340 338 335 337 338 338 337 335 336 337 336 336 334 334 333 333 334 333 331 330 330 331 331 330 330 328 330 331 329 326 324 323 322 324 325 326 328 328 325 324 328 331 332 333 333 332 331 332 332 331 331 330 330 331 331 331 331 331 332 331 330 330 330 330 330 327 322 321 322 322 322 322 325 326 327 327 327 328 328 328
343 343 343 341 338 339 336 332 335 338 338 335 334 335 336 336 335 335 334 332 332 333 332 332 331 329 330 330 328 328 328 329 329 328 327 326 325 326 327 328 328 330 330 327 326 330 333 333 333 332 332 332 332 332 331 330 330 331 331 331 331 332 331 331 331 330 330 330 330 329 328 325 325 325 325 324 325 326 327 327 327 327 327 327 326
343 342 342 341 337 337 335 332 336 338 338 335 333 334 335 335 335 335 334 332 331 332 332 331 330 329 329 329 328 328 327 327 327 327 327 327 327 327 329 329 328 329 330 329 329 332 333 332 332 332 332 331 332 332 330 330 331 331 331 331 332 332 332 331 330 330 330 330 329 329 328 327 327 327 326 326 326 326 326 326 326 326 325 325 324
342 342 341 340 338 337 336 335 337 338 337 335 334 334 335 335 335 335 334 332 331 331 331 330 330 329 329 329 329 328 327 328 328 327 327 327 327 327 328 327 327 328 330 329 331 333 333 332 333 332 331 330 331 331 330 330 332 332 331 332 333 332 332 331 330 330 330 329 328 328 328 327 328 327 326 326 327 326 326 325 325 324 324 323 323
341 342 341 340 338 337 337 337 338 338 337 336 334 333 335 334 334 334 333 333 331 330 331 330 330 329 330 330 328 328 328 328 329 328 327 327 327 329 328 327 327 329 331 330 331 333 333 334 333 332 330 330 330 330 330 331 332 332 331 333 333 332 332 332 331 330 330 328 328 328 327 326 326 326 326 325 325 325 325 324 324 323 323 323 323
341 341 341 340 338 337 337 338 338 338 338 336 334 333 335 334 333 333 333 332 331 331 331 330 331 329 329 329 327 329 328 328 328 327 327 326 328 330 328 327 328 329 331 331 332 332 333 333 332 330 329 329 330 330 330 331 331 331 332 332 331 331 331 331 330 329 328 328 327 327 326 326 326 326 326 326 325 325 325 324 324 324 323 323 322
342 342 341 340 338 337 337 338 338 337 337 336 334 333 334 335 334 334 333 332 330 331 330 329 330 329 328 328 327 328 328 328 328 327 326 327 328 329 326 326 328 329 329 331 331 331 332 332 331 329 327 328 330 330 329 331 331 330 331 330 329 329 329 329 328 328 328 328 328 327 327 327 327 327 326 326 326 326 325 324 326 325 323 322 320
343 343 341 340 339 338 337 337 337 337 336 335 334 333 334 334 334 334 333 331 330 330 329 328 329 328 328 328 327 327 328 329 328 327 327 327 326 326 325 326 328 329 329 331 331 331 333 332 330 330 327 327 330 329 329 331 331 330 329 328 328 328 327 327 326 327 329 329 328 328 328 328 327 328 328 326 325 326 325 326 327 325 323 321 319
343 342 341 340 340 339 337 337 337 337 336 335 335 334 334 334 334 334 333 331 330 329 329 329 328 329 329 329 328 326 327 328 327 327 327 326 324 324 325 327 329 330 330 331 331 331 332 331 330 331 329 329 329 329 330 331 329 329 329 328 327 327 326 327 327 328 329 328 328 328 328 329 328 328 328 327 326 327 326 327 327 326 326 324 322
342 341 341 341 339 338 338 337 337 336 335 336 336 335 334 334 334 334 333 331 330 330 330 330 329 329 330 329 328 326 326 327 326 325 324 324 323 322 325 327 329 331 330 329 329 330 330 329 331 331 330 330 328 328 330 329 328 328 328 328 327 327 327 328 328 328 328 328 328 327 327 329 329 329 328 327 328 327 327 327 326 324 325 326 324
341 341 341 340 339 338 338 337 336 336 336 336 336 335 335 334 334 333 332 331 330 330 330 331 330 329 328 329 327 326 328 327 326 324 323 323 322 323 325 326 329 331 329 328 328 328 328 329 331 331 330 330 329 328 328 328 328 328 327 328 328 327 327 327 327 327 328 329 329 328 328 329 329 329 328 327 326 325 325 324 321 320 323 325 324
341 341 340 340 339 338 337 336 335 336 336 335 335 335 335 334 333 332 331 330 330 330 330 331 330 329 329 328 326 326 328 326 327 326 323 323 323 325 328 328 330 331 329 328 329 329 329 329 331 331 331 329 328 328 327 328 328 327 328 328 327 327 328 328 327 327 328 329 329 329 329 329 328 328 327 325 323 323 322 320 318 319 321 323 323
341 341 340 340 339 338 337 335 335 336 336 334 334 334 334 333 332 331 330 330 331 331 330 331 331 330 330 330 327 327 327 325 327 328 326 326 326 327 329 330 331 331 328 329 329 328 329 330 330 331 331 330 328 328 328 329 327 326 328 328 328 328 328 328 328 328 328 328 328 328 328 328 327 326 324 322 322 322 321 318 317 319 321 322 324
341 340 339 339 338 338 337 335 335 336 336 334 334 333 333 332 331 330 329 329 330 330 331 331 331 331 331 331 329 328 329 328 329 330 329 329 328 328 328 329 331 329 327 328 330 330 330 330 331 330 330 330 329 329 329 329 328 327 328 328 328 329 328 327 328 328 327 327 327 327 327 327 326 324 322 321 321 322 321 320 318 318 320 322 322
341 340 339 338 337 337 337 337 336 336 335 335 334 334 333 332 331 331 330 328 328 329 332 332 331 332 331 331 330 329 330 329 329 331 331 329 328 328 328 329 331 329 326 327 329 331 330 330 331 330 329 330 329 328 329 328 328 328 327 327 327 328 328 327 327 327 327 327 327 327 327 326 324 321 320 320 321 321 321 321 318 317 319 320 317
340 339 339 337 336 336 336 337 336 335 334 334 334 334 334 333 332 332 331 328 328 329 332 332 332 332 332 332 331 330 330 330 330 331 332 330 328 328 328 328 331 330 327 328 329 330 330 330 330 330 330 330 327 326 328 327 327 328 326 326 325 327 328 328 327 327 327 327 327 326 326 325 322 320 319 320 320 320 319 319 318 319 320 320 319
340 339 338 337 336 336 335 336 336 335 334 333 333 334 334 333 332 332 331 330 329 330 332 333 332 331 330 330 331 330 330 330 331 330 331 332 329 328 328 327 328 330 329 330 329 329 330 331 331 329 329 330 327 326 328 327 328 327 326 325 324 326 328 327 326 327 327 327 327 326 325 324 321 319 318 319 319 318 317 317 317 318 319 319 320
339 338 339 338 336 335 335 336 336 335 334 334 333 333 333 332 331 331 330 329 331 332 333 332 330 329 328 329 330 330 329 329 330 329 330 331 329 328 328 328 328 328 329 331 331 331 330 330 331 328 327 329 327 327 327 328 328 328 325 323 323 326 327 325 326 326 326 326 326 325 324 323 321 318 317 317 317 317 316 316 315 315 316 316 317
339 338 338 337 336 335 335 335 335 335 334 334 333 332 332 331 330 328 326 328 332 332 332 330 329 330 329 329 329 329 329 328 328 328 328 329 329 328 328 328 329 328 328 331 331 331 331 329 329 327 326 327 326 326 327 328 328 327 326 325 324 326 326 326 326 326 326 326 325 324 324 323 321 318 317 316 316 316 315 315 315 314 314 313 313
Wind_Speed
15 13 16 18 17 16 15 15 14 13 13 14 15 16 18 19 19 18 17 16 16 16 15 15 15 13 12 13 14 14 14 14 14 14 14 13 13 13 14 16 18 19 19 19 19 19 20 20 20 20 20 21 20 20 17 17 19 17 16 16 17 18 18 18 18 17 17 18 18 17 17 18 19 19 18 17 17 17 15 15 16 16 17 16 15
16 14 18 19 17 16 15 14 13 12 12 14 15 17 19 20 20 19 18 17 16 17 16 16 15 13 12 13 13 13 13 14 14 14 14 13 13 13 15 16 17 18 20 19 19 20 21 21 21 21 21 21 20 19 18 18 20 18 16 16 17 18 18 18 18 17 17 18 18 17 18 20 21 20 18 18 18 18 15 14 16 16 16 15 15
17 16 21 19 17 16 15 14 12 12 12 14 16 18 20 20 20 20 19 18 17 18 17 16 15 13 12 13 13 13 13 13 14 14 14 14 13 13 15 16 16 18 20 20 20 19 20 21 22 22 21 21 20 19 19 19 19 18 17 17 17 18 19 19 19 18 17 16 16 17 18 20 21 21 19 18 18 17 15 14 15 16 15 15 14
17 17 22 20 17 17 14 14 12 12 13 15 17 18 20 20 21 20 20 19 18 18 17 16 15 13 12 13 13 13 12 12 13 13 13 14 14 14 16 17 16 19 20 20 20 19 20 22 22 23 22 21 21 20 19 19 19 19 18 18 18 18 20 21 21 21 19 16 14 16 16 17 19 20 19 18 16 15 15 13 13 14 13 13 13
18 17 21 20 18 16 14 13 12 13 14 15 17 19 20 21 21 21 20 20 19 18 17 16 14 13 12 12 13 13 12 12 12 12 13 14 14 15 17 16 15 18 20 20 20 19 20 22 23 23 22 21 21 20 20 19 18 19 19 18 18 20 23 24 24 23 22 18 15 16 14 14 15 16 16 15 14 13 12 11 11 10 10 10 10
17 16 20 21 18 17 14 13 12 13 14 16 18 20 20 21 21 21 21 20 19 18 17 16 14 13 12 12 12 12 12 12 11 11 13 14 14 16 16 15 14 16 19 19 19 18 18 21 23 23 22 22 21 20 20 19 19 19 19 19 19 22 25 26 24 21 18 15 14 14 12 11 10 11 12 12 11 11 10 9 9 7 7 7 6
17 17 19 20 19 17 15 13 13 14 15 18 19 20 20 21 21 21 21 20 19 18 17 16 14 13 12 11 11 11 11 11 10 11 13 14 14 16 15 14 13 14 17 17 17 16 16 18 20 21 21 22 22 21 20 19 19 18 19 19 20 24 26 25 22 19 16 13 12 11 10 10 7 8 9 9 9 9 7 6 5 5 5 6 5
18 18 19 19 18 17 16 14 14 14 16 18 19 20 20 20 21 20 20 20 19 18 17 15 14 13 12 11 11 11 11 10 11 11 13 15 15 15 14 13 13 14 16 16 17 17 16 16 18 19 20 21 22 22 20 20 19 19 19 19 21 23 23 22 23 21 18 14 13 10 9 9 7 6 7 7 8 7 8 6 5 4 4 6 6
19 18 18 18 17 17 16 15 14 15 16 17 18 19 19 19 20 20 20 20 19 19 17 15 14 13 12 11 10 10 10 11 11 11 12 14 15 15 14 12 12 13 14 15 15 15 16 16 18 19 20 21 21 22 21 21 19 19 19 20 20 21 20 20 21 20 16 13 12 12 12 10 6 6 6 6 6 7 10 9 7 6 6 6 7
19 18 16 17 18 17 17 15 15 15 16 17 17 18 18 19 19 20 20 21 20 19 17 16 14 14 14 12 11 10 9 11 12 11 12 14 15 15 14 12 12 12 13 13 13 14 15 16 17 18 20 21 21 22 21 21 20 20 21 23 23 22 21 20 21 17 12 11 10 14 13 8 5 7 8 6 6 7 7 7 7 8 8 9 9
19 18 16 17 19 17 17 15 15 15 15 16 17 17 18 18 19 19 20 21 21 19 18 16 15 15 14 13 11 10 9 11 11 10 11 13 15 16 14 12 11 12 12 12 13 14 16 17 18 19 20 20 21 21 21 21 21 20 22 24 25 24 22 21 21 14 11 12 11 12 8 4 7 9 9 7 7 7 6 6 8 9 9 9 10
18 17 17 19 19 17 16 15 15 14 15 16 16 17 17 18 18 18 19 20 20 19 18 17 16 15 14 13 11 10 10 11 12 11 10 12 15 16 14 13 13 13 13 12 13 14 16 18 19 19 20 20 20 20 20 21 21 21 21 24 26 25 22 22 19 12 11 13 13 12 6 6 10 10 9 9 9 8 9 9 9 9 9 9 9
18 16 18 21 19 17 16 15 14 13 14 14 15 16 16 17 17 18 18 19 19 18 17 17 16 15 14 13 12 11 10 9 12 15 14 14 16 17 15 14 14 13 13 12 13 15 17 18 19 19 19 20 20 20 20 19 20 20 21 23 26 24 22 21 15 11 11 12 11 9 8 10 11 11 11 11 10 10 10 10 10 10 11 11 10
19 17 19 22 20 18 16 15 14 13 13 13 13 14 15 16 17 17 18 18 18 18 17 16 15 14 14 13 13 11 8 8 11 16 17 16 17 17 15 14 14 13 13 12 13 16 18 18 18 19 19 19 19 19 19 19 19 19 21 23 25 23 23 19 12 12 12 11 10 7 9 12 11 12 12 12 11 11 11 11 11 11 11 11 10
19 17 21 23 20 19 17 15 14 13 12 12 12 12 14 15 17 17 17 18 18 18 17 16 15 15 15 14 13 10 9 9 10 13 16 16 16 17 16 15 14 14 13 13 14 16 18 17 17 18 18 18 18 18 18 18 18 18 20 23 24 21 22 18 10 11 11 10 8 7 11 13 13 13 13 13 13 12 12 12 11 11 11 10 10
17 16 20 22 21 20 17 16 14 13 12 12 12 12 13 14 16 17 18 18 18 17 16 16 15 15 15 14 12 11 10 11 10 10 13 15 14 16 16 15 15 14 13 14 15 16 16 16 16 16 17 17 17 17 17 17 17 17 17 19 23 21 21 18 10 9 10 9 7 7 11 12 13 13 13 13 13 13 12 12 12 11 11 10 11
17 17 17 20 22 21 18 17 14 13 12 11 11 11 12 13 16 17 18 18 17 16 16 16 16 15 14 14 13 12 12 11 11 9 10 14 15 15 15 15 14 14 14 14 16 16 15 15 15 15 15 15 15 15 15 15 16 16 15 17 21 21 20 17 12 10 11 9 6 6 9 11 12 12 12 12 12 12 12 12 11 11 11 11 11
19 19 16 18 20 20 19 18 15 14 13 12 11 10 11 13 15 17 17 17 16 16 16 16 16 15 15 15 14 13 13 12 12 10 10 12 14 14 14 14 14 15 15 15 16 16 15 14 13 14 13 12 14 14 13 14 14 15 16 16 19 19 18 16 12 11 10 8 6 6 9 10 11 12 11 11 11 11 11 11 11 11 11 11 11
19 19 18 18 17 18 19 18 17 15 13 13 12 11 11 12 14 15 16 16 16 16 15 16 16 16 15 15 15 14 14 13 12 11 11 11 11 11 12 13 14 14 16 16 17 17 15 14 13 13 12 11 12 13 12 12 13 15 17 18 19 19 18 15 10 10 8 6 6 7 9 11 11 11 11 10 11 11 11 11 11 11 11 11 11
19 19 18 18 17 17 18 18 17 15 14 13 12 12 11 12 13 14 15 15 15 16 15 16 16 16 15 15 15 15 15 14 13 12 12 11 10 10 10 12 13 14 15 16 17 17 16 15 13 12 12 11 11 13 12 12 12 14 16 16 17 18 15 11 9 8 6 5 7 8 9 10 11 10 10 10 10 10 10 9 10 9 9 10 9
20 20 18 17 17 17 18 19 17 15 15 13 12 12 12 12 13 14 14 15 15 16 16 16 16 15 15 15 15 15 16 15 14 13 12 12 11 10 10 10 12 14 15 16 16 15 15 14 13 12 11 11 11 11 11 11 11 12 13 12 13 14 11 9 9 8 5 4 6 7 9 10 10 10 10 9 9 9 9 8 8 8 8 9 8
20 21 19 17 17 17 18 19 18 16 15 14 13 13 13 13 13 13 13 14 15 15 15 16 16 16 15 15 16 17 17 17 15 13 12 11 11 11 10 8 9 12 14 15 15 14 13 13 12 11 11 10 10 9 9 10 9 10 9 8 10 10 8 9 9 8 5 3 5 7 8 9 9 10 9 8 8 8 8 8 8 8 7 7 7
19 20 20 18 16 17 18 19 18 17 16 15 14 13 13 13 12 13 13 13 14 14 14 15 15 16 16 16 17 19 19 18 17 15 13 12 11 11 9 7 7 10 12 13 14 13 12 11 11 11 10 10 10 9 7 7 8 7 6 7 9 8 8 9 8 7 5 3 5 6 7 8 9 9 8 7 7 7 7 7 8 7 7 7 7
18 18 19 19 18 18 18 18 18 18 17 15 15 14 13 13 12 13 14 14 15 15 15 17 17 17 17 18 17 17 19 19 18 16 15 14 12 10 7 5 6 7 9 11 12 12 11 10 10 10 9 9 9 8 7 8 7 6 5 6 8 9 8 8 8 8 5 4 5 6 6 7 7 8 8 6 5 5 6 6 7 6 6 6 6
17 17 17 18 19 19 18 19 19 18 18 16 15 15 14 13 13 14 14 14 15 16 17 19 19 19 20 20 18 16 19 19 18 17 16 13 10 8 6 5 6 7 8 9 10 11 11 10 9 9 9 8 8 8 8 7 7 6 6 8 9 9 9 8 9 8 5 3 4 5 6 6 6 7 8 7 5 4 5 5 6 6 6 6 6
17 18 17 18 19 19 19 19 20 20 18 15 14 15 15 14 14 15 14 14 15 15 17 19 19 20 20 20 19 18 18 19 18 17 16 13 9 8 8 7 6 7 7 7 8 9 10 9 9 9 9 8 7 7 7 8 9 9 7 8 9 9 9 8 9 8 4 4 5 5 6 5 5 7 8 7 5 4 4 4 5 5 5 6 6
19 18 17 18 20 21 19 19 20 20 18 16 14 13 14 16 15 15 14 14 15 15 16 16 17 19 18 18 19 19 19 18 17 17 14 13 11 8 8 7 6 6 8 8 8 8 9 9 8 9 9 9 8 8 10 12 11 11 9 8 9 9 8 8 9 9 6 6 7 5 5 5 4 5 6 6 5 4 4 5 5 5 5 6 7
18 17 17 19 21 21 19 20 20 19 18 18 17 14 14 15 15 14 15 15 15 15 15 14 15 17 16 16 18 18 18 17 16 16 14 12 12 10 9 8 7 8 8 9 8 8 11 11 10 11 10 9 10 10 9 10 9 9 10 8 9 9 9 9 10 10 6 6 6 4 3 3 2 4 5 5 5 5 5 6 6 6 7 8 10
17 18 18 17 20 20 19 20 21 20 19 18 19 16 13 13 14 15 16 15 14 15 16 15 16 16 15 16 18 18 18 17 17 16 13 12 13 12 12 11 10 9 8 8 7 8 10 11 11 11 10 9 10 10 8 9 9 8 9 8 8 8 9 9 10 10 6 5 5 3 2 1 2 4 5 7 7 7 8 8 9 9 10 12 13
17 19 18 16 17 19 17 18 19 20 20 19 18 16 14 15 15 16 17 16 15 15 13 14 16 16 15 16 18 18 18 17 16 15 13 12 13 13 12 12 10 9 9 9 9 10 10 10 11 9 9 9 11 11 9 11 10 8 9 9 8 8 8 9 9 9 7 6 6 4 2 1 2 3 6 9 10 11 12 13 13 12 13 13 13
17 17 16 13 13 14 15 16 17 18 18 16 16 17 17 16 13 15 17 16 16 15 13 13 16 16 17 17 17 18 18 15 15 14 14 13 12 12 12 11 11 10 10 9 10 10 9 10 9 9 10 10 11 12 11 12 12 11 11 10 9 8 8 8 8 8 6 6 6 5 3 3 3 5 10 13 14 15 15 14 13 12 11 11 10
16 16 13 11 13 15 14 14 17 18 17 14 15 19 20 15 12 14 16 14 13 14 15 14 16 16 18 18 18 18 18 15 15 15 14 13 12 12 12 11 12 11 10 9 9 9 9 9 8 9 10 11 11 11 12 12 13 13 12 11 10 8 8 8 7 7 6 6 6 5 4 6 6 8 11 12 13 13 11 10 9 9 9 8 8
15 14 13 13 14 16 14 15 17 18 16 14 14 16 18 14 14 15 15 15 13 13 14 15 17 17 17 18 18 17 17 17 16 15 13 13 13 13 12 11 12 12 10 10 11 10 9 8 10 10 11 10 9 11 13 12 11 13 12 10 10 9 8 8 8 7 7 7 7 6 5 7 8 8 7 8 8 8 8 7 7 6 5 6 6
13 13 14 14 15 14 14 16 16 15 14 12 12 14 15 13 13 14 14 15 13 13 13 14 17 18 17 19 19 17 17 17 16 14 13 13 14 13 12 11 11 11 11 11 11 10 8 9 12 12 11 10 9 11 14 13 11 13 13 9 9 9 8 8 8 8 8 8 8 7 7 8 8 8 5 5 6 6 6 6 5 5 4 5 5
12 12 13 12 13 15 15 16 16 15 14 12 12 13 13 13 13 14 13 13 13 13 13 13 16 19 20 20 19 18 17 16 15 13 13 14 14 13 12 11 11 11 11 12 11 9 9 10 10 11 13 12 12 12 13 16 12 11 13 11 8 8 8 8 7 7 8 9 8 9 9 8 9 8 5 4 5 5 5 5 5 5 4 5 5
13 11 11 11 12 15 15 17 16 15 14 12 12 12 12 13 13 14 14 12 12 12 11 11 13 18 22 21 19 18 16 15 14 13 13 14 13 12 12 10 11 11 11 12 11 9 10 10 9 11 14 13 13 13 13 15 13 11 11 10 8 8 7 8 8 8 9 9 9 10 10 9 7 6 5 4 4 4 4 4 5 5 5 5 5
13 11 10 11 12 13 14 16 15 13 12 12 13 13 14 14 14 14 14 13 11 11 10 10 10 15 19 19 18 16 16 14 13 13 13 14 12 11 11 10 11 12 11 11 10 11 11 11 13 13 15 15 14 14 14 15 13 12 11 9 8 9 9 9 9 9 8 9 9 9 9 8 7 6 6 5 4 4 4 4 4 4 5 5 5
13 12 10 10 10 11 12 14 14 12 12 12 13 15 15 15 15 14 14 13 10 9 11 11 11 14 17 17 17 16 16 15 14 13 13 13 12 11 10 10 12 12 12 11 11 13 13 12 14 14 15 16 16 14 15 15 13 12 10 8 9 10 11 10 8 8 8 9 8 9 9 9 9 8 7 6 5 4 4 4 3 3 4 5 4
12 12 11 10 10 10 12 15 15 13 12 13 14 15 16 15 15 14 13 12 11 10 11 12 12 15 17 18 18 16 15 15 14 13 13 13 12 12 10 9 11 12 12 11 11 13 12 12 13 13 13 14 16 16 15 13 12 12 11 9 9 10 10 9 7 8 9 8 7 8 10 10 8 9 8 6 6 5 4 4 3 4 5 5 5
12 12 11 11 11 12 13 15 16 14 13 13 14 16 16 14 14 14 13 12 12 12 11 11 13 15 17 18 18 17 16 15 15 13 12 12 12 11 10 10 10 11 11 11 12 12 11 12 11 12 13 12 14 17 15 13 12 12 12 10 10 11 10 9 9 9 8 8 8 7 8 9 8 8 7 6 6 5 5 4 4 5 5 5 5
14 13 11 11 12 12 14 15 15 14 14 14 14 15 15 14 13 12 12 12 12 11 10 10 13 15 16 16 17 17 15 13 12 12 11 12 13 11 11 12 11 9 10 11 12 12 11 12 10 10 13 12 13 15 14 13 13 13 13 12 12 12 11 10 10 8 7 8 8 7 7 7 7 8 6 6 5 4 5 5 4 4 3 4 5
15 14 12 12 12 12 13 14 13 14 15 14 13 13 13 14 13 11 11 11 10 10 10 10 12 14 14 15 17 16 14 12 11 11 12 12 14 13 13 13 11 9 11 12 12 12 11 11 9 9 10 11 12 14 14 13 14 15 15 14 13 12 12 10 9 9 8 7 5 6 7 7 8 8 6 8 6 4 5 4 5 6 4 5 6
15 14 13 13 12 13 13 13 12 12 13 14 13 12 14 15 13 11 11 10 9 10 11 10 12 14 14 15 18 17 14 12 11 11 11 12 15 15 15 14 11 10 12 11 11 11 11 10 9 9 10 11 12 14 14 13 15 16 15 14 14 13 12 10 9 9 9 7 5 4 6 7 8 9 8 8 7 6 5 5 6 7 7 7 6
15 14 14 14 12 13 14 13 13 11 13 14 13 12 14 15 13 11 10 9 11 11 11 11 14 16 15 16 17 15 13 11 11 12 12 14 16 14 13 12 10 11 11 10 10 10 10 10 10 8 9 10 12 14 13 11 15 17 15 12 13 13 11 10 10 9 8 7 6 5 7 6 7 9 8 7 7 6 6 7 8 7 8 7 6
16 15 15 14 12 13 14 13 14 13 12 13 14 14 15 15 14 12 11 12 13 12 11 12 15 15 15 15 13 13 12 11 12 13 12 13 13 12 13 13 12 12 11 10 10 10 9 9 9 10 9 10 12 14 14 12 14 17 14 11 10 9 10 12 11 9 8 8 7 6 8 7 7 9 8 7 7 6 6 7 8 7 8 7 7
16 16 15 14 13 13 13 13 15 14 12 12 13 15 15 15 14 13 15 14 13 13 11 11 13 12 11 12 11 11 12 12 11 10 9 10 10 13 14 13 13 14 13 11 9 9 9 9 9 10 11 11 12 15 17 16 16 16 14 12 9 7 12 16 13 10 10 9 7 7 7 7 7 8 7 8 8 7 6 6 7 7 8 7 6
17 16 15 15 14 14 14 13 14 15 13 13 14 15 15 15 13 12 15 15 13 13 12 11 12 10 10 10 10 11 11 10 10 10 9 9 9 11 12 11 11 12 13 12 10 9 9 9 9 9 10 12 12 14 17 18 18 17 15 13 9 8 13 16 13 13 13 10 8 8 6 7 8 7 7 7 8 9 8 7 7 7 7 7 6
17 16 15 15 14 14 15 14 14 14 13 14 16 16 15 15 13 12 13 13 10 12 12 11 12 11 10 10 9 9 9 8 9 10 10 8 8 9 10 11 11 10 11 11 11 9 8 8 9 9 8 11 12 12 14 16 18 18 15 12 9 9 14 15 12 13 14 13 11 9 8 8 9 9 8 7 7 9 9 8 7 7 8 7 7
17 16 15 14 14 14 15 15 14 12 12 15 16 17 16 15 15 13 13 13 10 11 12 12 12 11 10 8 8 7 7 8 8 8 8 8 8 8 8 9 9 9 9 9 9 8 8 8 9 10 10 10 11 11 13 15 17 17 15 12 10 12 15 13 11 12 14 15 14 12 10 9 8 9 8 8 8 9 9 8 8 8 8 9 8
16 16 15 15 15 14 14 15 13 12 14 16 16 17 17 17 17 16 15 14 12 12 13 12 11 9 8 8 8 7 7 7 7 6 7 7 6 6 6 7 7 9 9 8 8 8 10 11 10 11 13 11 10 11 12 14 16 16 15 13 12 13 14 13 11 12 13 12 12 13 12 10 9 8 8 8 8 8 9 9 8 8 8 9 8
17 16 16 16 15 15 15 16 16 16 18 17 17 18 18 18 19 18 16 15 14 14 13 11 10 9 9 9 8 7 7 7 6 5 6 6 5 5 6 6 7 8 8 8 9 9 10 12 11 11 13 12 11 11 11 12 14 15 15 15 12 13 17 15 12 13 12 11 12 12 12 11 10 9 8 9 8 8 8 8 8 8 9 9 7
Wind_Direction
143 171 180 168 163 158 155 153 154 155 159 159 157 158 160 161 166 171 171 167 155 149 148 143 141 142 136 132 137 138 140 141 142 142 141 140 137 133 130 125 119 115 110 106 103 99 97 94 92 88 87 92 98 105 101 98 107 109 104 101 102 103 102 100 99 99 95 86 82 85 90 92 91 92 92 90 88 85 85 87 86 85 85 86 85
144 160 177 170 163 160 155 154 155 156 162 162 162 162 162 164 167 171 170 168 160 154 153 149 147 148 138 131 135 140 144 145 145 146 146 146 144 141 135 127 122 118 113 109 104 100 98 96 94 90 88 90 95 101 100 100 110 112 109 104 101 102 102 100 99 97 91 84 79 80 87 92 91 90 91 88 84 83 82 83 85 85 85 85 85
142 154 170 167 163 159 154 154 154 158 164 165 166 164 166 167 168 171 170 169 163 159 156 154 152 151 142 133 135 141 146 149 150 150 153 153 152 147 133 126 123 117 114 112 106 102 102 100 95 92 90 90 93 96 97 102 110 113 113 107 102 101 100 98 95 91 85 84 84 82 87 91 91 92 92 89 86 86 83 82 82 83 84 83 83
141 152 165 164 162 157 154 154 155 161 166 168 168 166 167 168 169 171 171 170 166 163 159 158 156 153 146 138 137 142 149 153 154 156 158 159 155 143 131 126 123 118 117 116 110 107 105 101 97 93 91 90 92 93 97 103 108 111 112 110 105 102 99 93 86 81 74 70 72 74 81 87 90 93 93 93 90 86 84 84 80 80 84 84 83
141 152 162 161 158 155 153 153 157 162 166 168 169 168 168 169 170 172 172 172 169 166 163 162 160 156 150 144 142 143 152 156 158 161 156 152 146 136 132 127 124 123 123 121 114 110 107 103 99 96 92 90 90 93 97 102 106 108 110 112 109 104 99 93 86 81 76 70 67 63 69 86 89 89 90 92 91 89 89 89 87 84 84 84 85
143 151 156 158 156 152 151 153 157 161 166 168 169 169 169 170 171 172 173 173 171 168 166 164 162 159 155 152 148 148 154 156 158 162 149 142 140 135 133 128 129 128 126 126 118 114 110 105 102 99 96 92 90 90 95 101 106 108 110 112 111 108 103 95 88 83 81 77 73 66 64 79 90 97 95 92 92 91 89 84 82 78 77 75 78
146 148 152 158 154 148 149 152 156 161 166 169 171 171 171 171 171 173 173 173 172 170 169 167 165 162 161 158 155 155 155 157 159 158 149 143 141 136 134 132 133 128 126 128 122 119 115 108 103 101 98 96 94 91 92 97 103 108 112 114 114 113 107 98 92 85 81 75 76 81 78 77 81 106 112 106 101 96 86 66 55 51 65 71 65
147 147 152 158 152 145 148 152 156 161 166 170 173 173 174 172 172 173 174 175 173 172 172 170 168 165 165 163 162 163 160 160 158 155 154 148 142 137 133 131 130 124 122 123 121 119 117 111 105 101 100 99 97 95 93 93 99 105 111 115 118 120 112 104 100 90 82 83 87 88 84 85 78 98 125 120 111 104 84 54 43 56 65 70 68
148 148 154 158 149 143 148 154 157 160 165 169 173 175 175 174 173 174 175 175 175 175 175 174 171 167 166 166 167 169 164 159 154 152 153 147 141 137 132 128 128 124 119 120 122 119 116 113 107 105 103 101 100 99 96 94 95 99 107 112 115 116 105 97 94 84 82 88 95 102 99 96 87 87 106 109 104 97 87 72 64 71 67 68 71
149 150 156 157 146 144 150 155 157 159 164 168 172 175 176 176 175 176 177 177 178 179 178 176 172 169 167 169 171 172 164 160 158 152 153 150 142 137 134 134 134 128 122 122 125 124 120 115 111 108 105 104 103 102 100 98 96 97 103 106 105 99 89 83 78 74 80 85 106 132 128 113 100 88 86 84 77 77 87 83 66 65 66 68 71
148 150 156 156 147 146 152 154 154 156 161 165 171 175 178 179 177 178 179 179 181 182 179 176 175 171 169 169 172 176 167 165 163 155 155 153 144 139 140 144 146 139 133 133 132 129 125 120 117 113 109 106 105 105 104 102 100 98 100 103 101 94 87 82 77 73 78 79 95 127 138 112 93 88 84 77 68 65 71 72 66 67 71 74 73
147 148 157 157 148 149 152 151 150 151 156 162 169 175 179 179 178 179 180 182 184 183 180 178 177 171 170 172 176 180 171 171 166 153 153 156 150 145 148 156 158 149 141 140 136 134 131 126 121 117 111 108 106 106 106 106 105 103 104 105 99 92 88 82 81 84 87 87 93 105 109 94 88 84 85 83 77 71 72 73 71 72 75 79 73
146 146 157 156 150 152 151 147 147 147 150 156 164 172 177 180 181 180 181 183 185 183 180 180 180 175 174 172 175 177 170 180 172 158 162 171 162 153 159 165 159 148 143 143 141 140 133 127 124 119 114 111 109 108 108 109 109 109 109 107 100 96 91 84 85 93 92 95 100 106 102 95 91 87 88 88 87 82 82 81 78 77 74 75 73
148 151 156 156 155 152 150 146 143 143 145 148 154 163 172 179 182 182 183 184 184 182 181 181 181 176 174 170 172 178 172 179 180 172 176 181 169 160 166 164 155 151 151 151 146 141 135 131 128 122 117 115 112 111 109 110 112 112 112 108 102 99 93 85 85 92 91 96 101 108 103 100 99 96 96 94 91 89 87 83 79 77 75 74 73
154 162 158 158 157 151 150 146 142 142 141 142 144 153 165 176 182 183 183 183 183 182 182 181 180 174 171 172 174 178 169 161 171 181 187 189 178 168 168 164 162 162 161 156 148 144 140 136 131 125 121 118 114 112 111 112 114 116 117 110 104 100 97 96 91 89 91 95 97 103 105 104 101 99 99 95 91 89 86 82 78 78 79 78 77
158 163 157 161 159 153 153 148 146 145 142 142 141 147 158 169 178 181 181 182 182 182 181 179 179 177 172 173 171 168 164 158 158 173 190 195 189 177 170 170 171 169 168 162 153 148 145 141 135 128 123 121 117 113 113 113 115 119 120 114 109 105 101 102 98 92 91 89 91 102 106 106 103 100 98 95 92 90 87 84 81 80 79 77 76
157 156 158 166 162 156 155 152 152 151 148 145 143 145 153 163 170 174 176 179 181 179 178 178 177 176 170 165 165 165 164 165 161 162 180 188 191 188 181 177 175 173 173 168 158 150 147 145 139 131 125 124 119 114 115 116 116 118 119 117 115 112 107 104 101 97 95 97 107 114 111 108 106 102 99 97 95 92 88 84 81 79 75 70 69
158 157 163 166 162 161 158 157 157 157 155 150 149 148 153 161 166 171 173 174 177 177 176 178 177 175 171 164 165 166 166 170 170 166 167 174 182 190 192 186 179 175 174 169 158 151 147 145 142 135 129 128 122 117 117 118 118 115 114 113 109 104 99 94 92 93 96 115 137 124 114 108 104 102 98 95 93 91 87 84 80 76 72 71 72
161 162 165 165 164 165 163 162 161 164 163 158 159 153 155 161 167 171 174 175 175 177 178 179 179 175 174 169 165 165 169 173 174 175 171 171 175 183 194 194 186 176 173 169 159 152 149 146 145 140 134 133 126 119 120 121 117 113 111 108 102 92 83 82 89 95 104 133 136 116 113 109 104 100 95 92 91 90 88 87 84 81 79 79 78
165 167 168 171 168 169 168 167 166 171 171 169 168 161 160 163 170 174 177 181 180 181 180 182 182 176 176 171 165 165 172 174 174 181 181 180 185 187 193 198 194 184 175 169 163 156 152 149 146 141 138 140 132 123 124 125 120 118 113 106 101 89 81 92 101 99 114 141 125 114 113 107 102 97 92 91 92 93 93 91 89 86 83 82 79
170 171 173 177 176 176 174 172 173 177 178 179 177 170 166 165 171 175 179 184 185 185 182 183 183 179 178 170 166 170 175 176 174 182 188 190 199 199 194 200 200 195 186 170 164 162 157 152 146 144 144 142 136 129 128 127 126 125 118 106 94 84 83 96 96 89 96 126 119 114 110 102 96 92 90 89 90 93 94 92 88 84 81 79 79
172 174 176 180 182 183 179 178 179 179 183 184 183 181 171 167 171 172 176 182 184 183 181 182 185 185 182 173 174 179 179 176 174 181 189 191 200 201 193 199 202 201 198 179 168 169 165 156 147 148 145 140 137 133 133 131 129 127 117 98 87 91 99 98 96 91 90 137 137 121 110 100 90 83 83 85 87 88 88 88 84 80 79 78 76
173 177 179 184 182 183 182 183 184 182 186 188 189 190 177 172 173 172 173 178 180 178 177 179 186 189 183 181 183 183 182 177 174 176 181 182 189 198 196 199 204 198 200 190 178 176 173 164 156 152 145 143 143 142 141 133 132 127 107 94 103 115 114 104 105 97 88 144 147 136 118 102 91 77 71 75 80 84 84 83 81 79 77 76 74
176 177 182 186 182 184 186 182 187 187 186 188 191 191 183 177 175 175 175 178 179 175 177 179 182 184 181 186 186 180 183 179 173 172 175 178 183 194 197 200 197 184 190 193 184 181 178 175 170 159 153 156 159 162 158 150 143 124 103 108 119 122 114 111 114 112 119 140 141 134 116 104 96 79 66 66 76 84 82 80 80 78 76 73 72
177 180 184 187 182 187 187 181 189 193 190 189 191 187 181 178 176 178 178 182 182 177 184 185 182 181 181 188 188 181 184 180 171 172 175 175 183 187 183 192 184 164 170 181 181 182 185 189 186 172 168 178 182 173 166 170 153 127 132 134 127 124 123 122 121 126 143 141 134 124 106 99 95 78 64 64 77 89 89 84 81 76 75 74 73
181 184 184 186 185 191 188 183 192 198 196 193 188 184 179 175 177 181 178 180 183 185 191 190 188 185 182 185 189 184 184 180 171 173 175 166 173 178 174 182 175 159 158 168 180 182 188 197 196 189 183 188 200 182 175 195 171 145 152 144 129 130 132 134 133 134 128 98 102 111 102 92 83 69 57 60 72 93 105 98 87 79 74 72 71
186 186 187 192 191 193 189 188 196 196 196 196 187 187 187 180 181 187 185 185 188 192 191 189 197 196 187 184 187 184 180 176 170 170 172 162 162 169 178 180 170 167 162 171 185 177 180 191 197 201 193 191 214 212 187 189 175 150 150 145 135 137 135 135 133 131 126 100 85 82 94 91 76 60 55 64 74 91 109 105 94 84 78 73 72
187 185 189 198 196 193 189 192 201 197 195 198 193 196 198 187 185 193 195 194 195 197 194 193 205 203 191 181 182 182 173 168 168 169 167 161 160 164 175 172 168 178 173 173 177 173 176 184 197 204 199 192 207 224 197 169 163 150 145 146 141 139 140 139 135 134 135 109 88 78 89 94 77 60 62 78 87 95 103 102 96 88 85 81 79
191 192 192 196 194 189 188 195 202 199 199 204 201 199 200 192 191 197 197 196 199 202 200 202 208 204 193 181 181 179 167 165 170 171 169 169 170 173 177 174 173 178 174 164 168 181 176 178 202 207 199 194 197 216 202 156 158 161 148 148 146 144 144 142 142 146 151 134 120 113 102 102 56 48 73 88 90 98 103 101 97 94 92 88 85
197 200 198 192 188 186 191 198 201 201 207 211 206 203 206 199 201 209 203 196 203 207 202 203 206 205 200 189 183 180 171 166 165 169 176 180 182 184 183 183 183 181 176 169 179 188 178 184 203 199 192 204 205 205 191 159 161 169 161 156 151 151 146 142 151 160 162 149 139 148 146 95 12 40 92 96 93 98 101 99 97 95 93 89 85
200 203 201 190 187 191 194 200 205 207 206 209 211 214 212 196 194 212 206 198 204 205 197 201 205 200 195 187 176 175 175 164 159 173 183 182 184 186 184 184 183 184 185 183 189 188 185 193 190 181 190 207 209 201 189 169 167 174 167 159 155 156 148 144 162 170 167 159 147 151 130 60 50 102 106 100 98 99 98 97 94 88 84 79 73
204 204 200 191 195 197 198 209 217 214 201 204 222 222 216 202 198 211 209 207 204 195 187 190 198 190 185 183 172 172 177 173 170 176 178 177 181 183 182 180 178 180 183 186 189 184 183 188 181 185 194 202 208 198 184 174 175 177 163 155 157 158 155 149 160 162 152 156 150 145 110 70 81 116 116 110 106 101 96 92 84 72 67 63 54
207 203 199 192 200 199 200 223 230 221 202 204 228 229 223 219 216 217 216 219 209 196 191 183 187 189 187 185 180 178 179 180 177 171 169 174 177 176 176 178 179 178 178 180 180 176 180 186 188 192 191 195 206 192 179 178 181 174 159 156 158 155 158 153 159 161 147 148 149 146 127 101 102 112 118 120 114 105 98 93 85 75 67 61 52
207 204 203 191 205 211 210 229 231 221 209 209 231 234 227 225 224 222 217 218 212 205 203 183 178 185 185 181 179 176 174 177 175 168 170 174 175 174 176 181 184 181 177 175 172 171 181 189 185 186 186 185 198 193 182 184 181 163 155 158 161 158 158 155 165 172 160 155 154 151 146 138 130 121 121 125 118 111 103 100 96 91 81 69 59
209 206 204 185 206 221 218 230 226 216 218 219 228 229 224 226 229 226 219 216 210 208 207 185 173 176 178 175 175 174 174 177 175 173 175 178 177 175 180 185 185 183 180 174 168 175 185 185 180 185 187 182 194 199 184 181 171 153 158 161 160 160 158 159 166 173 170 166 162 161 161 158 146 134 138 138 119 116 107 98 94 89 79 65 56
211 205 200 181 198 212 213 227 222 211 216 213 215 222 222 224 226 223 221 216 209 214 214 193 178 174 174 176 177 174 175 175 174 177 180 181 178 176 180 183 186 187 188 179 168 181 189 183 188 192 189 183 190 197 186 177 164 155 167 163 157 162 160 160 168 179 177 173 172 173 176 176 161 141 142 149 133 126 117 106 98 87 67 45 36
209 206 197 181 190 202 211 224 220 209 211 208 209 218 219 218 223 222 221 220 214 221 221 210 198 181 176 181 181 175 175 177 177 179 184 185 180 180 181 180 190 191 191 184 175 191 191 189 201 194 187 188 190 195 188 177 174 175 173 162 162 167 164 162 173 186 176 169 172 172 175 170 155 142 128 123 126 125 121 121 106 76 49 31 27
204 206 198 181 186 199 209 217 215 208 207 207 212 219 221 219 220 219 221 223 216 219 218 217 214 194 185 185 184 181 179 183 185 183 184 187 185 189 189 187 196 197 195 187 188 202 198 197 206 191 185 191 188 191 188 181 186 182 169 168 175 175 173 171 177 179 168 163 157 153 155 145 139 140 128 115 114 119 129 133 108 53 36 33 34
204 206 199 186 192 196 204 212 211 209 206 208 214 219 221 219 218 215 219 221 213 216 222 225 223 207 193 187 186 189 188 187 188 186 186 191 195 194 196 201 202 201 198 191 197 207 201 201 204 187 186 193 188 192 192 184 182 174 172 183 186 182 174 169 168 163 158 148 136 141 140 134 135 132 131 134 131 135 148 136 94 63 51 45 41
204 208 201 190 195 191 197 213 213 209 208 208 213 218 218 216 217 216 215 216 216 222 231 232 219 204 195 190 190 193 195 192 184 185 192 199 205 203 206 209 202 203 199 195 206 208 204 209 203 181 179 186 190 195 193 183 176 170 172 177 171 169 163 157 160 160 155 140 137 142 129 128 133 126 135 149 145 140 136 118 81 69 55 49 51
202 206 203 191 196 193 193 209 219 215 205 200 204 212 215 213 210 212 215 216 219 221 224 222 203 194 193 189 190 193 197 198 185 186 197 202 210 215 224 216 195 201 206 200 207 209 212 214 202 182 179 184 189 192 189 180 175 167 163 165 159 159 161 159 158 156 152 139 142 146 130 131 129 127 137 133 131 127 119 115 96 95 63 42 61
206 205 201 194 197 202 197 201 217 216 202 194 197 202 206 210 208 209 215 216 216 211 202 195 186 189 194 190 193 195 195 198 195 198 204 208 215 215 223 220 195 200 218 214 213 215 217 213 198 187 186 192 192 190 187 176 173 167 160 161 157 156 159 157 155 156 154 142 146 149 135 134 127 126 121 107 111 108 113 129 126 129 105 61 69
204 202 195 197 196 200 203 197 204 209 200 195 198 201 199 202 208 208 210 207 202 200 192 178 168 176 188 194 199 199 195 198 202 209 212 215 220 214 215 216 201 208 224 223 220 221 221 212 199 191 191 193 187 185 186 178 173 166 159 156 153 155 155 153 153 151 147 140 147 146 122 127 130 126 121 114 119 117 121 138 135 137 123 93 84
195 195 190 195 191 194 202 195 194 200 201 195 190 199 199 196 202 204 200 189 178 180 181 173 166 169 178 187 196 197 193 201 210 213 215 215 214 208 208 210 205 216 224 221 221 223 223 214 200 194 197 193 184 183 181 177 175 167 159 154 153 156 153 149 146 137 135 135 146 144 124 129 128 119 121 122 126 126 133 142 139 136 123 109 97
189 190 188 191 189 194 203 195 190 194 198 192 183 193 198 194 198 193 181 178 174 171 169 167 171 176 179 185 191 191 190 201 208 207 209 213 212 205 207 208 207 215 216 215 222 222 221 216 201 196 198 188 184 186 177 170 174 169 160 152 152 163 161 151 142 135 141 138 141 141 129 132 123 111 114 116 118 122 129 139 140 133 121 112 108
190 191 186 187 188 195 205 198 192 192 190 185 181 191 194 191 198 190 179 182 180 169 164 168 175 179 184 186 181 180 188 195 194 199 212 216 213 212 212 208 208 216 214 210 216 216 218 216 205 202 200 190 188 190 184 176 175 175 173 166 159 165 164 156 146 142 143 137 135 134 127 125 116 111 117 118 118 115 115 125 133 129 121 114 118
191 190 182 185 190 196 202 200 198 196 189 185 184 187 188 189 195 190 184 190 185 171 170 178 179 178 186 184 176 177 187 192 182 186 211 216 210 212 211 202 206 219 216 206 205 209 215 210 205 212 207 198 198 196 189 182 180 181 182 178 172 166 166 163 158 151 145 141 142 135 126 124 119 119 123 124 132 133 125 117 114 110 103 97 105
189 185 184 187 190 195 200 202 207 207 198 193 191 188 187 187 187 185 184 186 181 176 179 181 177 180 189 183 179 180 179 185 180 182 199 207 206 208 207 202 202 214 214 205 204 205 210 209 202 208 210 198 198 203 197 188 183 180 180 180 172 170 174 171 167 161 151 146 148 143 140 146 141 134 123 120 136 137 123 111 109 109 107 103 102
185 183 184 185 188 194 199 202 206 207 195 191 195 192 185 180 178 177 177 175 174 181 185 183 183 189 193 179 174 176 170 175 182 187 192 196 204 205 207 207 202 208 207 203 212 211 211 219 209 210 217 197 189 203 205 195 183 178 179 181 170 168 179 180 175 173 164 153 153 155 153 154 153 150 142 135 138 135 126 125 125 123 120 115 108
181 182 182 183 190 196 197 196 197 195 187 187 194 192 180 174 175 172 171 171 175 185 187 186 187 189 183 172 170 171 169 171 177 186 186 191 206 206 207 211 206 206 198 194 214 217 217 222 215 219 225 207 193 200 199 190 182 181 184 185 181 176 181 189 189 183 174 161 158 160 159 154 151 157 155 143 140 140 135 131 125 121 118 114 117
179 180 181 182 189 197 196 192 191 192 188 185 189 187 178 174 176 174 171 173 179 184 185 180 177 175 171 169 168 167 167 169 174 182 184 187 202 208 208 212 212 208 197 197 208 211 221 226 219 222 223 214 209 202 190 184 180 182 187 188 189 183 181 187 191 188 180 166 161 162 162 159 152 151 152 146 146 146 140 136 133 130 123 122 140